Location: Marquette
(46.5440°N, 87.3950°W)
Time: 22:08:11
(UTC-04:00)

Daily predictions for brighter satellites

Satellite Brightness Start Highest point End
(mag) Time Altitude Azimuth Time Altitude Azimuth Time Altitude Azimuth
Timation 2 Rocket 4.3 21:51:58 10° NNW 21:57:50 51° NE 22:03:38 10° SE
CZ-4 DEB 3.7 21:59:26 10° S 22:02:31 49° W 22:05:38 10° NNW
EO 1 Delta rocket 4.5 21:59:19 10° NNE 22:05:27 53° E 22:10:25 10° S
Cosmos 2154 Rocket 4.0 22:05:09 10° S 22:11:17 67° E 22:17:26 10° NNE
BREEZE-M DEB (TANK) 2.7 22:10:20 10° WSW 22:12:52 86° SSE 22:19:03 10° ENE
Envisat 3.0 22:10:45 10° SSE 22:15:50 87° ENE 22:20:58 10° NNW
CZ-3C R/B 4.5 22:01:58 10° SW 22:16:14 16° SSW 22:22:28 10° SSE
Cosmos 1862 3.3 22:13:03 10° S 22:17:05 67° E 22:21:10 10° NNE
H-2A R/B 2.0 22:13:50 10° SSE 22:18:07 90° ENE 22:22:21 10° NNW
Cosmos 1606 3.0 22:15:31 10° NNW 22:19:27 71° W 22:23:20 10° S
COSMOS 2487 2.5 22:15:58 10° NNW 22:19:36 86° WSW 22:23:12 10° SSE
Cosmos 614 Rocket 4.3 22:17:17 10° NNW 22:22:16 50° ENE 22:26:48 12° SE
APEX 4.3 22:19:53 10° S 22:23:32 33° ESE 22:28:08 10° NE
Cosmos 1420 Rocket 4.3 22:22:24 10° S 22:27:25 48° ESE 22:32:26 10° NNE
NOSS 5 (C) 4.1 22:24:42 10° SW 22:28:01 83° SE 22:31:08 10° NE
Meteor 1-27 Rocket 4.1 22:24:55 10° NNW 22:30:26 64° W 22:35:52 10° S
ERS-1 Rocket 3.9 22:25:42 10° S 22:30:33 48° W 22:35:27 10° NNW
Gbstr 26 Del rocket 4.0 22:25:34 10° WNW 22:31:02 54° NNE 22:35:29 10° E
MetOp-B 4.2 22:25:44 10° SSE 22:31:03 73° ENE 22:36:25 10° N
BREEZE-M DEB (TANK) 1.6 22:29:07 10° W 22:31:08 58° NNW 22:33:45 10° ENE
SL-8 R/B 3.9 22:29:08 10° W 22:33:59 77° N 22:38:49 10° ENE
Cosmos 1140 Rocket 3.5 22:29:29 10° NNW 22:34:40 87° WSW 22:39:36 11° SSE
CZ-4 SHROUD 3.1 22:32:35 13° SSE 22:35:12 70° ENE 22:38:18 10° N
PSLV R/B 3.0 22:33:20 13° SSE 22:35:50 77° ENE 22:38:48 10° N
Okean 3 3.6 22:32:11 10° NNW 22:36:29 78° W 22:40:43 10° S
CZ-4B R/B 3.8 22:41:14 10° NNE 22:45:59 44° E 22:50:13 12° S
H-2A R/B 3.0 22:42:13 15° ESE 22:46:02 34° ENE 22:50:46 10° N
Cosmos 1452 Rocket 4.0 22:41:32 10° SSW 22:46:46 66° WNW 22:52:03 10° NNE
ARGOS 3.2 22:46:30 15° SSE 22:50:56 67° ENE 22:56:17 10° N
Okean 2 Rocket 3.0 22:46:36 10° S 22:51:01 88° E 22:55:27 10° N
SL-08 RB Rocket 4.0 22:49:27 18° SE 22:52:47 56° ENE 22:57:22 10° N
Cosmos 1242 Rocket 2.9 22:51:20 10° NNW 22:54:59 65° W 22:58:03 14° S
Cosmos 1184 Rocket 3.7 22:54:49 10° SSW 22:58:04 50° WNW 23:01:22 10° N
YAOGAN 6 2.8 22:56:01 15° S 22:58:48 64° W 23:02:20 10° NNW
ISS -3.4 22:55:48 10° WSW 22:59:04 88° SSE 23:02:20 10° ENE
Terra 2.7 22:56:47 19° ESE 22:59:35 35° ENE 23:03:54 10° N
SPOT 1/Viking Rocket 3.6 22:57:07 15° SSE 23:01:26 89° WSW 23:06:43 10° NNW
Cosmos 1408 3.9 22:58:03 10° SSW 23:01:31 40° WNW 23:05:00 10° N
Cosmos 1782 Rocket 4.1 22:57:15 10° SSW 23:01:40 60° WNW 23:06:08 10° N
Cosmos 1238 Rocket 4.2 23:00:12 10° NNW 23:03:07 30° W 23:06:26 10° SSW
Cosmos 2218 Rocket 4.0 23:00:27 10° S 23:06:47 71° E 23:13:10 10° NNE
SPOT 5 4.0 23:05:05 10° S 23:10:08 45° W 23:15:18 10° NNW
Cosmos 1825 4.0 23:09:14 10° SW 23:12:40 31° WNW 23:16:08 10° N
Cosmos 1975 Rocket 4.3 23:09:43 10° NNW 23:13:44 37° W 23:17:43 10° SSW
Cosmos 1833 Rocket 2.7 23:08:16 10° NNW 23:13:55 86° ENE 23:17:28 24° SSE
AVUM R/B 3.4 23:10:30 10° NNW 23:14:02 71° ENE 23:15:23 34° SE
Okean 1 3.9 23:13:11 10° N 23:17:05 42° ENE 23:18:36 29° SE
CARTOSAT-1 3.9 23:15:44 27° SE 23:17:45 50° ENE 23:21:56 10° N
Cosmos 1727 Rocket 3.9 23:11:58 10° N 23:18:10 76° E 23:22:23 22° SSE
Meteor 1-25 Rocket 4.4 23:15:15 19° S 23:19:26 59° E 23:25:09 10° NNE
Cosmos 1959 Rocket 4.4 23:13:55 10° S 23:20:01 87° E 23:26:09 10° N
Cosmos 2278 Rocket 3.1 23:14:50 10° SW 23:20:21 52° WNW 23:25:56 10° NNE
DELTA 2 DEB (DPAF) 4.1 23:18:43 27° SSE 23:21:06 73° ENE 23:25:34 10° N
Lacrosse 5 3.3 23:25:04 20° ESE 23:25:04 20° ESE 23:27:36 10° ENE
Cosmos 1536 Rocket 3.6 23:22:14 10° N 23:26:45 85° W 23:29:10 27° S
Meteor 2-8 Rocket 4.4 23:22:25 10° N 23:28:37 90° W 23:32:43 23° S
USA 229 DEB 3.9 23:22:00 10° NW 23:29:03 70° SW 23:33:32 25° SSE
USA 229 3.9 23:22:06 10° NW 23:29:10 71° SW 23:33:38 25° SSE
SAR-Lupe-2 4.4 23:28:49 31° E 23:29:39 35° ENE 23:32:57 10° N
Meteor 1-18 Rocket 4.4 23:28:55 10° NNW 23:34:50 78° W 23:38:39 23° S
BREEZE-M DEB (TANK) 3.9 23:27:11 10° WNW 23:36:28 35° SW 23:38:18 24° S
ASTEX 1 3.9 23:31:47 10° NNE 23:36:31 44° E 23:38:12 32° SE
Cosmos 2082 Rocket 2.7 23:31:55 10° NW 23:37:27 52° WSW 23:40:49 23° S
Cosmos 1812 2.6 23:34:12 10° N 23:38:06 87° E 23:39:21 42° SSE
NOSS 8 (E) 4.4 23:37:32 29° SSW 23:39:08 70° SE 23:42:57 10° NE
Cosmos 1339 Rocket 4.5 23:34:55 10° N 23:41:07 87° W 23:44:51 26° S
DMSP B5D2-2 4.1 23:40:24 10° NNE 23:45:36 64° ESE 23:48:00 32° S
Cosmos 1331 Rocket 3.9 23:43:57 28° S 23:46:34 65° ESE 23:51:41 10° NNE
NOSS 3-1 (A) 4.3 23:40:00 10° NW 23:47:19 62° NE 23:52:37 23° ESE
Meteor 1-13 Rocket 4.4 23:46:25 10° N 23:52:22 70° ENE 23:55:00 34° SSE
Cosmos 1110 Rocket 3.9 23:50:53 23° SSW 23:54:15 84° ESE 23:59:29 10° NNE
IGS 5A 3.5 23:54:28 43° S 23:55:46 76° WSW 23:59:56 10° NNW
